[[{"header":{"parameterUnit":"m.s-1","parameterCategory":1,"la1":30.2991,"la2":30.254,"lo1":-89.0895,"lo2":-89.0444,"dy":0.0017,"dx":0.0017,"nx":28,"ny":28,"refTime":"2024-06-09T21:00:00:Z","depth":0,"parameterNumber":2,"parameterNumberName":"U-component_of_WINDS"},"data":[0,0,0,0,0,0,0,0,0,0,0,0,0,0,0,0,0,0,0,0,0,0,0,0,0,0,0,0,0,0,0,0,0,0,0,0,0,0,0,0,0,0,0,0,0,0,0,0,0,0,0,0,0,0,0,0,0,0,5.3555,5.3557,0,5.3715,5.3717,5.3719,5.3633,5.3629,5.3624,5.362,5.3788,5.3796,5.3805,0,0,0,0,0,0,0,0,0,0,0,0,0,5.3176,5.3184,5.3555,5.3557,5.3559,5.3715,5.3717,5.3719,5.3634,5.3629,5.3623,5.3618,5.3785,5.3795,5.3805,0,0,0,0,0,0,0,0,0,0,0,0,0,5.3339,5.3186,5.3554,5.3535,5.3535,5.3714,5.3717,5.372,5.3635,5.3628,5.3622,5.3616,5.3782,5.3794,5.3807,5.4016,0,0,5.3846,5.3851,0,0,0,0,0,0,0,0,5.333,5.3353,5.3536,5.3537,5.3537,5.3647,5.3645,5.3819,5.3637,5.3597,5.362,5.3613,5.3747,5.3762,5.3806,5.4024,5.4031,5.3847,5.3855,5.386,5.3864,0,0,0,0,0,0,0,5.3319,5.3346,5.3618,5.3539,5.3539,5.3519,5.3535,5.3678,5.3707,5.36,5.3594,5.3614,5.3746,5.3794,5.381,5.4033,5.3847,5.3858,5.3866,5.3871,5.4428,5.4435,0,0,0,0,0,0,5.3308,5.3337,5.3613,5.3623,5.3415,5.3531,5.3549,5.3619,5.3705,5.3712,5.362,5.361,5.3776,5.3795,5.3815,5.4064,5.386,5.3872,5.3879,5.4421,5.443,5.4437,0,0,0,0,0,0,5.3301,5.3334,5.3607,5.3479,5.3512,5.3544,5.3623,5.3625,5.3673,5.3719,5.3724,5.3664,5.3771,5.3797,5.3966,5.4068,5.3878,5.3889,5.4412,5.4424,5.4433,5.4564,0,0,0,0,0,0,5.329,5.3332,5.3411,5.3481,5.3519,5.3755,5.363,5.3633,5.3695,5.3684,5.3762,5.3769,5.3768,5.3947,5.3979,5.4082,5.3899,5.4403,5.4417,5.443,5.455,5.4578,5.4601,0,0,0,0,0,5.3277,5.3443,5.3416,5.3449,5.3619,5.3761,5.3782,5.3777,5.3704,5.3784,5.3813,5.3767,5.4052,5.3965,5.4,5.4109,5.4397,5.4413,5.4429,5.4539,5.4572,5.46,0,0,0,0,0,0,5.3386,5.3451,5.3422,5.3615,5.3683,5.3746,5.3847,5.3813,5.3903,5.3889,5.388,5.3898,5.4073,5.4108,5.401,5.4315,5.4213,5.4237,5.4285,5.4317,5.4342,5.4329,5.391,0,0,0,0,0,5.3432,5.3541,5.3593,5.3758,5.3794,5.3815,5.3876,5.3866,5.3936,5.3965,5.4006,5.4077,5.4182,5.4252,5.4351,5.4555,5.457,5.4648,5.4673,5.4693,5.4713,5.4822,5.4856,5.449,5.449,5.449,0,0,5.3529,5.3578,5.3648,5.3781,5.3832,5.3945,5.3839,5.3964,5.4048,5.3984,5.4144,5.4178,5.4256,5.4442,5.4527,5.4477,5.4818,5.4714,5.473,5.4739,5.4842,5.4876,5.4907,5.4501,5.4499,5.4497,0,0,5.3763,5.3812,5.3954,5.4007,5.4085,5.4098,5.4132,5.42,5.4219,5.438,5.4333,5.4434,5.4616,5.4672,5.4725,5.4979,5.4939,5.5012,5.5143,5.5249,5.5278,5.5303,5.5392,5.5424,5.5032,5.5033,5.5033,0,5.3874,5.4042,5.4032,5.4159,5.4219,5.4165,5.4308,5.436,5.4468,5.451,5.4453,5.4679,5.4728,5.4925,5.4987,5.5033,5.507,5.5003,5.5274,5.53,5.5323,5.5408,5.5441,5.5041,5.504,5.5039,5.5038,0,5.4173,5.429,5.4396,5.4498,5.457,5.4705,5.4716,5.479,5.4773,5.4792,5.4956,5.5012,5.5121,5.5168,5.5154,5.5364,5.533,5.5274,5.5172,5.5367,5.5445,5.5478,5.5053,5.505,5.5047,5.5045,0,0,5.448,5.4575,5.4613,5.4658,5.474,5.483,5.4963,5.5068,5.513,5.5207,5.5316,5.5471,5.5419,5.5479,5.5471,5.5564,5.5759,5.5496,5.5498,5.5541,5.5991,5.603,5.6068,5.5733,5.5739,5.5744,5.5983,0,5.4718,5.4948,5.4942,5.5156,5.5263,5.5213,5.5328,5.539,5.5411,5.5506,5.5529,5.5638,5.5562,5.5597,5.5687,5.5716,5.5848,5.5699,5.5834,5.5839,5.5814,5.611,5.6153,5.6376,5.6014,5.6019,5.6023,0,5.5026,5.511,5.5334,5.5397,5.5442,5.5546,5.564,5.5732,5.5801,5.581,5.5876,5.5853,5.5987,5.5881,5.6065,5.5963,5.6018,5.6041,5.6049,5.606,5.5942,5.6127,5.6448,5.648,5.6072,5.6068,5.6065,0,5.5225,5.5394,5.5549,5.559,5.5669,5.5742,5.5779,5.5841,5.5904,5.5988,5.6028,5.6127,5.6181,5.6258,5.6262,5.6185,5.6447,5.6342,5.6457,5.6457,5.6513,5.6509,5.6845,5.6552,5.6552,5.6551,5.655,0,5.549,5.5629,5.5639,5.5735,5.5888,5.588,5.6033,5.6062,5.6118,5.6218,5.6182,5.6277,5.6277,5.6374,5.6378,5.6528,5.6554,5.6564,5.6563,5.6566,5.6564,5.6601,5.6585,5.656,5.6558,5.6556,5.6555,0,5.5738,5.575,5.5916,5.5976,5.5994,5.6105,5.6156,5.6247,5.6264,5.6391,5.642,5.6448,5.6559,5.6571,5.6702,5.6704,5.6885,5.6869,5.6861,5.6858,5.6971,5.6959,5.734,5.7389,5.7067,5.707,5.7072,0,5.5905,5.601,5.6081,5.6144,5.6184,5.6288,5.6351,5.6348,5.6415,5.6501,5.6581,5.6689,5.6775,5.6956,5.6988,5.7087,5.7071,5.7198,5.7086,5.7085,5.707,5.7063,5.7073,5.7219,5.7223,5.7226,5.7228,0,5.62,5.62,5.6292,5.6387,5.6463,5.6538,5.6607,5.6662,5.6667,5.6745,5.6857,5.6924,5.7056,5.7163,5.726,5.7298,5.7264,5.7263,5.7294,5.7298,5.7288,5.7292,5.6918,5.7254,5.7251,5.725,5.7248,5.7247,5.6411,5.6501,5.6564,5.6667,5.6719,5.6785,5.6872,5.6899,5.6993,5.7099,5.7091,5.7216,5.7281,5.7408,5.7453,5.755,5.7507,5.7553,5.7565,5.7576,5.7586,5.7274,5.7568,5.7567,5.7566,5.7566,5.7565,0,5.6702,5.6739,5.6835,5.6932,5.7013,5.6973,5.7048,5.7119,5.7228,5.7291,5.7376,5.7505,5.7608,5.7647,5.7748,5.7818,5.7805,5.7844,5.7838,5.7847,5.7619,5.7581,5.7853,5.7853,5.7853,5.7853,5.7853,5.7853,5.6862,5.7012,5.702,5.7194,5.7231,5.7351,5.7397,5.7457,5.7507,5.7652,5.7737,5.7761,5.7815,5.7919,5.8011,5.802,5.8058,5.8104,5.8106,5.7892,5.7863,5.7835,5.7799,5.8113,5.8113,5.8325,5.8327,5.8329]},{"header":{"parameterUnit":"m.s-1","parameterCategory":1,"la1":30.2991,"la2":30.254,"lo1":-89.0895,"lo2":-89.0444,"dy":0.0017,"dx":0.0017,"nx":28,"ny":28,"refTime":"2024-06-09T21:00:00:Z","depth":0,"parameterNumber":3,"parameterNumberName":"V-component_of_WINDS"},"data":[0,0,0,0,0,0,0,0,0,0,0,0,0,0,0,0,0,0,0,0,0,0,0,0,0,0,0,0,0,0,0,0,0,0,0,0,0,0,0,0,0,0,0,0,0,0,0,0,0,0,0,0,0,0,0,0,0,0,1.5727,1.5728,0,1.581,1.5811,1.5812,1.5798,1.5797,1.5795,1.5794,1.5879,1.5882,1.5886,0,0,0,0,0,0,0,0,0,0,0,0,0,1.5557,1.556,1.5727,1.5728,1.5729,1.581,1.5811,1.5812,1.5798,1.5797,1.5795,1.5793,1.5878,1.5882,1.5886,0,0,0,0,0,0,0,0,0,0,0,0,0,1.5634,1.5561,1.5727,1.5732,1.5733,1.581,1.5811,1.5812,1.5799,1.5796,1.5794,1.5792,1.5876,1.5882,1.5887,1.5963,0,0,1.5903,1.5906,0,0,0,0,0,0,0,0,1.563,1.5641,1.573,1.5732,1.5733,1.5791,1.5782,1.5863,1.5799,1.5774,1.5794,1.5791,1.5852,1.5859,1.5879,1.5967,1.5971,1.5904,1.5907,1.5909,1.5911,0,0,0,0,0,0,0,1.5625,1.5637,1.576,1.5732,1.5734,1.573,1.5739,1.5797,1.5824,1.5776,1.5775,1.5785,1.5852,1.5874,1.5881,1.5972,1.5904,1.5909,1.5912,1.5914,1.6126,1.6128,0,0,0,0,0,0,1.5618,1.5632,1.5757,1.5762,1.5675,1.5735,1.5744,1.5775,1.5823,1.5828,1.5787,1.5784,1.5866,1.5875,1.5884,1.5976,1.5909,1.5915,1.5918,1.6124,1.6127,1.6129,0,0,0,0,0,0,1.5614,1.5629,1.5754,1.5697,1.5713,1.574,1.5774,1.5778,1.58,1.5831,1.5836,1.5804,1.5864,1.5876,1.5943,1.5979,1.5917,1.5922,1.6121,1.6125,1.6128,1.6162,0,0,0,0,0,0,1.5609,1.5628,1.5657,1.5698,1.5716,1.5813,1.5777,1.5781,1.5809,1.5806,1.5849,1.5854,1.5864,1.5935,1.5949,1.5986,1.5926,1.6118,1.6123,1.6127,1.6158,1.6167,1.6174,0,0,0,0,0,1.5603,1.5664,1.5659,1.5674,1.5754,1.5815,1.5825,1.5835,1.5812,1.5842,1.5862,1.5853,1.5973,1.5942,1.5957,1.5996,1.6116,1.6121,1.6127,1.6155,1.6165,1.6174,0,0,0,0,0,0,1.5628,1.567,1.5664,1.574,1.5774,1.5812,1.585,1.5845,1.5886,1.5882,1.5892,1.5902,1.597,1.5989,1.5955,1.6072,1.6041,1.605,1.6057,1.6067,1.6075,1.6069,1.5931,0,0,0,0,0,1.5642,1.5688,1.5722,1.5785,1.5802,1.5823,1.585,1.5855,1.589,1.5904,1.5929,1.5964,1.6009,1.6039,1.6083,1.616,1.6169,1.6194,1.6202,1.6208,1.6216,1.6258,1.6269,1.6147,1.6147,1.6147,0,0,1.5672,1.57,1.5729,1.5791,1.5818,1.5865,1.5836,1.5887,1.5922,1.5912,1.5977,1.5996,1.6036,1.6108,1.6141,1.6127,1.6251,1.6215,1.622,1.6224,1.6264,1.6276,1.6286,1.6151,1.615,1.6149,0,0,1.575,1.5776,1.5832,1.5859,1.5899,1.5913,1.5926,1.5965,1.5977,1.6042,1.6035,1.6077,1.6155,1.6183,1.6207,1.6295,1.6288,1.6308,1.635,1.6391,1.64,1.6409,1.644,1.6451,1.6316,1.6316,1.6316,0,1.5782,1.5854,1.5861,1.5914,1.5941,1.5933,1.5989,1.6015,1.6067,1.6086,1.6069,1.6166,1.6192,1.627,1.6291,1.6311,1.6327,1.6304,1.6398,1.6407,1.6415,1.6445,1.6457,1.6318,1.6318,1.6318,1.6317,0,1.5891,1.594,1.598,1.6031,1.6063,1.6116,1.6132,1.6163,1.6164,1.6179,1.6245,1.6275,1.6324,1.6343,1.6344,1.6422,1.6411,1.6396,1.6365,1.6429,1.6457,1.6469,1.6321,1.632,1.632,1.6319,0,0,1.599,1.6042,1.6057,1.6079,1.6122,1.6161,1.6213,1.6261,1.6288,1.6323,1.6368,1.6433,1.6419,1.6447,1.6451,1.6487,1.6554,1.6467,1.6468,1.6483,1.664,1.6652,1.6665,1.6549,1.6551,1.6553,1.6637,0,1.6073,1.6167,1.6174,1.6259,1.6304,1.6296,1.6342,1.6373,1.6388,1.6428,1.6444,1.649,1.6468,1.6485,1.6519,1.6538,1.6586,1.6532,1.659,1.6592,1.6582,1.668,1.6693,1.6772,1.6648,1.665,1.6651,0,1.6183,1.6222,1.631,1.6346,1.6365,1.6407,1.645,1.6489,1.6524,1.6532,1.6562,1.6561,1.6615,1.6581,1.6655,1.6618,1.6642,1.6655,1.6658,1.6665,1.6627,1.669,1.6797,1.6809,1.6669,1.6667,1.6666,0,1.6246,1.632,1.6383,1.6402,1.6445,1.6474,1.6494,1.6526,1.6554,1.6592,1.661,1.6654,1.6678,1.6712,1.6722,1.6696,1.6796,1.6763,1.6804,1.6804,1.6827,1.6826,1.694,1.6841,1.6841,1.684,1.684,0,1.6339,1.6394,1.6412,1.645,1.6511,1.6519,1.6578,1.6596,1.6625,1.6666,1.6661,1.67,1.6712,1.6752,1.6761,1.6821,1.6832,1.684,1.6842,1.6841,1.684,1.6858,1.6853,1.6843,1.6843,1.6842,1.6842,0,1.6421,1.6435,1.6503,1.6537,1.6547,1.659,1.662,1.6657,1.667,1.6723,1.6735,1.6756,1.6804,1.6817,1.6875,1.688,1.6951,1.6947,1.6939,1.694,1.6981,1.6977,1.7111,1.7129,1.7018,1.7019,1.7019,0,1.6479,1.6521,1.656,1.6587,1.6608,1.6652,1.668,1.6689,1.6718,1.676,1.6791,1.6838,1.6877,1.6953,1.6973,1.7017,1.7014,1.7058,1.7021,1.7019,1.7016,1.7013,1.7018,1.7066,1.7067,1.7068,1.7069,0,1.6582,1.6587,1.6628,1.6671,1.6704,1.6739,1.6772,1.6794,1.6807,1.684,1.6889,1.6918,1.6976,1.7023,1.7066,1.7086,1.708,1.708,1.7092,1.7092,1.7086,1.7091,1.696,1.7077,1.7076,1.7076,1.7075,1.7075,1.6655,1.6691,1.6724,1.6769,1.6795,1.6825,1.6862,1.6879,1.6919,1.6967,1.6969,1.7022,1.7054,1.7112,1.7134,1.7175,1.7162,1.7179,1.7184,1.7188,1.7192,1.7079,1.7183,1.7182,1.7182,1.7182,1.7182,0,1.6758,1.6778,1.682,1.6865,1.6901,1.6891,1.6926,1.6957,1.7003,1.7034,1.7071,1.7126,1.7171,1.7194,1.7238,1.7266,1.7265,1.7278,1.7276,1.7281,1.7201,1.7186,1.7278,1.7278,1.7278,1.7278,1.7278,1.7278,1.6816,1.6877,1.6885,1.6959,1.6978,1.703,1.7051,1.7079,1.7103,1.7165,1.7202,1.7217,1.7244,1.729,1.733,1.7336,1.7353,1.7367,1.7372,1.7296,1.7287,1.7277,1.7264,1.7371,1.7371,1.7448,1.7449,1.745]}]]